When you browse on this site, cookies collect data to enhance your experience and personalize the content and advertising you see.
Visit our Privacy Policy to learn more. By continuing to use the site, you agree to this use of cookies and data.
  • In Schweiz
  • Länderverzeichnis
  • Für 7 Tage
  • Wassertemperatur
  • Satellitenkarten
  • Wetterkarte
  • Widgets
  • user-avatar
    Anmelden

    Stündliche Wetter Newcastle

    Heute, 21 Mai, Dienstag

    Zeit Temperatur Niederschläge Wind Luftdruck Luftfeuchtigkeit
    00:00 +16°C° 0 mm 2 m/S 768 mmHg 73%
    01:00 +16°C° 0 mm 2 m/S 768 mmHg 72%
    02:00 +16°C° 0 mm 3 m/S 768 mmHg 73%
    03:00 +14°C° 0 mm 3 m/S 768 mmHg 75%
    04:00 +14°C° 0 mm 3 m/S 767 mmHg 76%
    05:00 +14°C° 0 mm 3 m/S 768 mmHg 77%
    06:00 +14°C° 0 mm 3 m/S 768 mmHg 78%
    07:00 +14°C° 0 mm 3 m/S 768 mmHg 78%
    08:00 +17°C° 0 mm 3 m/S 768 mmHg 71%
    09:00 +20°C° 0 mm 3 m/S 768 mmHg 65%
    10:00 +21°C° 0 mm 5 m/S 768 mmHg 57%
    11:00 +23°C° 0 mm 4 m/S 768 mmHg 53%
    12:00 +25°C° 0 mm 3 m/S 768 mmHg 48%
    13:00 +27°C° 0 mm 2 m/S 767 mmHg 44%
    14:00 +26°C° 0 mm 2 m/S 767 mmHg 48%
    15:00 +25°C° 0 mm 1 m/S 767 mmHg 52%
    16:00 +24°C° 0 mm 1 m/S 767 mmHg 63%
    17:00 +22°C° 0 mm 1 m/S 767 mmHg 66%
    18:00 +20°C° 0 mm 2 m/S 767 mmHg 70%
    19:00 +19°C° 0 mm 2 m/S 768 mmHg 74%
    20:00 +18°C° 0 mm 2 m/S 768 mmHg 73%
    21:00 +18°C° 0 mm 2 m/S 768 mmHg 73%
    22:00 +17°C° 0 mm 3 m/S 768 mmHg 73%
    23:00 +17°C° 0 mm 3 m/S 768 mmHg 73%

    Morgen, 22 Mai, Mittwoch

    Zeit Temperatur Niederschläge Wind Luftdruck Luftfeuchtigkeit
    00:00 +17°C° 0 mm 3 m/S 768 mmHg 74%
    01:00 +17°C° 0 mm 3 m/S 768 mmHg 74%
    02:00 +16°C° 0 mm 3 m/S 768 mmHg 74%
    03:00 +16°C° 0 mm 3 m/S 768 mmHg 75%
    04:00 +16°C° 0 mm 3 m/S 768 mmHg 76%
    05:00 +16°C° 0 mm 3 m/S 769 mmHg 77%
    06:00 +14°C° 0 mm 3 m/S 769 mmHg 78%
    07:00 +14°C° 0 mm 3 m/S 769 mmHg 79%
    08:00 +18°C° 0 mm 3 m/S 769 mmHg 71%
    09:00 +20°C° 0 mm 2 m/S 769 mmHg 64%
    10:00 +23°C° 0 mm 2 m/S 770 mmHg 56%
    11:00 +25°C° 0 mm 2 m/S 769 mmHg 53%
    12:00 +26°C° 0 mm 2 m/S 769 mmHg 49%
    13:00 +27°C° 0 mm 2 m/S 768 mmHg 45%
    14:00 +26°C° 0 mm 2 m/S 768 mmHg 52%
    15:00 +25°C° 0 mm 3 m/S 768 mmHg 59%
    16:00 +22°C° 0 mm 3 m/S 768 mmHg 66%
    17:00 +21°C° 0 mm 3 m/S 768 mmHg 75%
    18:00 +19°C° 0 mm 2 m/S 769 mmHg 84%
    19:00 +17°C° 0 mm 2 m/S 769 mmHg 93%
    20:00 +17°C° 0.2 mm 2 m/S 769 mmHg 94%
    21:00 +17°C° 0.2 mm 2 m/S 769 mmHg 94%
    22:00 +17°C° 0.2 mm 2 m/S 770 mmHg 95%
    23:00 +17°C° 0.2 mm 2 m/S 770 mmHg 95%

    übermorgen, 23 Mai, Donnerstag

    Zeit Temperatur Niederschläge Wind Luftdruck Luftfeuchtigkeit
    00:00 +16°C° 0.2 mm 2 m/S 770 mmHg 95%
    01:00 +16°C° 0.2 mm 2 m/S 770 mmHg 95%
    02:00 +16°C° 0.2 mm 3 m/S 769 mmHg 96%
    03:00 +16°C° 0.2 mm 3 m/S 769 mmHg 97%
    04:00 +16°C° 0.2 mm 3 m/S 769 mmHg 98%
    05:00 +16°C° 0.4 mm 3 m/S 769 mmHg 98%
    06:00 +16°C° 0.4 mm 3 m/S 769 mmHg 97%
    07:00 +16°C° 0.4 mm 3 m/S 770 mmHg 97%
    08:00 +17°C° 0 mm 3 m/S 770 mmHg 92%
    09:00 +18°C° 0 mm 3 m/S 770 mmHg 87%
    10:00 +19°C° 0 mm 3 m/S 770 mmHg 82%
    11:00 +21°C° 0 mm 3 m/S 769 mmHg 74%
    12:00 +22°C° 0 mm 3 m/S 769 mmHg 66%
    13:00 +25°C° 0 mm 2 m/S 768 mmHg 59%
    14:00 +24°C° 0 mm 2 m/S 768 mmHg 62%
    15:00 +23°C° 0 mm 2 m/S 767 mmHg 65%
    16:00 +23°C° 0 mm 2 m/S 767 mmHg 68%
    17:00 +20°C° 0 mm 2 m/S 767 mmHg 77%
    18:00 +19°C° 0 mm 1 m/S 768 mmHg 85%
    19:00 +18°C° 0 mm 1 m/S 768 mmHg 94%
    20:00 +16°C° 0 mm 1 m/S 768 mmHg 95%
    21:00 +16°C° 0 mm 1 m/S 768 mmHg 96%
    22:00 +16°C° 0 mm 1 m/S 768 mmHg 97%
    23:00 +15°C° 0 mm 1 m/S 768 mmHg 97%

    24 Mai, Freitag

    Zeit Temperatur Niederschläge Wind Luftdruck Luftfeuchtigkeit
    00:00 +15°C° 0 mm 2 m/S 768 mmHg 97%
    01:00 +15°C° 0 mm 2 m/S 767 mmHg 97%
    02:00 +15°C° 0 mm 2 m/S 767 mmHg 97%
    03:00 +14°C° 0 mm 2 m/S 767 mmHg 97%
    04:00 +14°C° 0 mm 2 m/S 767 mmHg 97%
    05:00 +14°C° 0 mm 2 m/S 767 mmHg 97%
    06:00 +14°C° 0 mm 2 m/S 767 mmHg 96%
    07:00 +13°C° 0 mm 2 m/S 767 mmHg 96%
    08:00 +16°C° 0 mm 2 m/S 767 mmHg 86%
    09:00 +18°C° 0 mm 2 m/S 767 mmHg 76%
    10:00 +20°C° 0 mm 2 m/S 767 mmHg 65%
    11:00 +21°C° 0 mm 2 m/S 766 mmHg 58%
    12:00 +24°C° 0 mm 2 m/S 766 mmHg 51%
    13:00 +25°C° 0 mm 2 m/S 765 mmHg 44%
    14:00 +25°C° 0 mm 2 m/S 765 mmHg 47%
    15:00 +24°C° 0 mm 1 m/S 764 mmHg 51%
    16:00 +23°C° 0 mm 1 m/S 764 mmHg 54%
    17:00 +20°C° 0 mm 2 m/S 764 mmHg 58%
    18:00 +18°C° 0 mm 2 m/S 765 mmHg 63%
    19:00 +17°C° 0 mm 3 m/S 765 mmHg 67%
    20:00 +16°C° 0 mm 3 m/S 765 mmHg 68%
    21:00 +16°C° 0 mm 3 m/S 765 mmHg 69%
    22:00 +14°C° 0 mm 3 m/S 765 mmHg 69%
    23:00 +14°C° 0 mm 3 m/S 765 mmHg 67%

    25 Mai, Samstag

    Zeit Temperatur Niederschläge Wind Luftdruck Luftfeuchtigkeit
    00:00 +14°C° 0 mm 3 m/S 765 mmHg 64%
    01:00 +15°C° 0 mm 2 m/S 765 mmHg 62%
    02:00 +13°C° 0 mm 3 m/S 764 mmHg 61%
    03:00 +13°C° 0 mm 3 m/S 764 mmHg 59%
    04:00 +13°C° 0 mm 3 m/S 764 mmHg 58%
    05:00 +13°C° 0 mm 3 m/S 764 mmHg 59%
    06:00 +13°C° 0 mm 3 m/S 765 mmHg 60%
    07:00 +13°C° 0 mm 3 m/S 765 mmHg 62%
    08:00 +16°C° 0 mm 3 m/S 765 mmHg 57%
    09:00 +18°C° 0 mm 3 m/S 765 mmHg 52%
    10:00 +21°C° 0 mm 3 m/S 765 mmHg 48%
    11:00 +23°C° 0 mm 2 m/S 764 mmHg 44%
    12:00 +25°C° 0 mm 2 m/S 763 mmHg 40%
    13:00 +27°C° 0 mm 2 m/S 762 mmHg 36%
    14:00 +26°C° 0 mm 2 m/S 762 mmHg 39%
    15:00 +25°C° 0 mm 2 m/S 762 mmHg 43%
    16:00 +24°C° 0 mm 2 m/S 762 mmHg 47%
    17:00 +21°C° 0 mm 2 m/S 762 mmHg 51%
    18:00 +19°C° 0 mm 3 m/S 762 mmHg 54%
    19:00 +17°C° 0 mm 3 m/S 762 mmHg 57%
    20:00 +17°C° 0 mm 3 m/S 763 mmHg 59%
    21:00 +16°C° 0 mm 3 m/S 763 mmHg 60%
    22:00 +14°C° 0 mm 3 m/S 763 mmHg 61%
    23:00 +14°C° 0 mm 3 m/S 762 mmHg 61%

    26 Mai, Sonntag

    Zeit Temperatur Niederschläge Wind Luftdruck Luftfeuchtigkeit
    00:00 +14°C° 0 mm 3 m/S 762 mmHg 61%
    01:00 +13°C° 0 mm 3 m/S 762 mmHg 61%
    02:00 +13°C° 0 mm 3 m/S 762 mmHg 59%
    03:00 +13°C° 0 mm 4 m/S 761 mmHg 58%
    04:00 +14°C° 0 mm 4 m/S 761 mmHg 56%
    05:00 +13°C° 0 mm 4 m/S 761 mmHg 55%
    06:00 +13°C° 0 mm 4 m/S 761 mmHg 54%
    07:00 +13°C° 0 mm 4 m/S 761 mmHg 53%
    08:00 +16°C° 0 mm 5 m/S 761 mmHg 49%
    09:00 +19°C° 0 mm 5 m/S 761 mmHg 46%
    10:00 +21°C° 0 mm 5 m/S 760 mmHg 42%
    11:00 +22°C° 0 mm 5 m/S 759 mmHg 39%
    12:00 +25°C° 0 mm 5 m/S 759 mmHg 36%
    13:00 +26°C° 0 mm 5 m/S 758 mmHg 33%
    14:00 +26°C° 0 mm 5 m/S 757 mmHg 36%
    15:00 +25°C° 0 mm 4 m/S 757 mmHg 39%
    16:00 +23°C° 0 mm 4 m/S 757 mmHg 42%
    17:00 +22°C° 0 mm 4 m/S 757 mmHg 44%
    18:00 +20°C° 0 mm 4 m/S 757 mmHg 47%
    19:00 +18°C° 0 mm 4 m/S 758 mmHg 49%
    20:00 +18°C° 0 mm 4 m/S 758 mmHg 51%
    21:00 +16°C° 0 mm 5 m/S 759 mmHg 53%
    22:00 +16°C° 0 mm 6 m/S 759 mmHg 54%
    23:00 +15°C° 0 mm 6 m/S 759 mmHg 54%
    Mehr zeigen